{"data":{"norad_id":50212,"epoch":"2026-09-20T03:26:04.462080Z","epoch_age_seconds":52888,"freshness":"FRESH","line1":"1 50212U 21126A   26263.14310720  .00000142  00000+0  00000+0 0  9994","line2":"2 50212   0.0745 334.5075 0001790 325.7455 152.2998  1.00273360 17256","mean_motion":1.0027336,"eccentricity":0.000179,"inclination_deg":0.0745,"raan_deg":334.5075,"arg_perigee_deg":325.7455,"mean_anomaly_deg":152.2998,"bstar":0,"rev_number":1725,"period_min":1436.0743471646,"perigee_km":35778.606029308,"apogee_km":35793.700845284,"semimajor_km":42164.290437296,"source":"CELESTRAK","updated_at":"2026-09-20T09:00:35.302113Z"}}